Terminal Aerodrome Forecast
Issued by NWS

Home | Current Version | Previous Version | Text Only | Print | Product List | Glossary On
Versions: 1 2 3 4 5 6 7 8 9 10 11 12 13 14 15 16 17 18
732
FTUS44 KLZK 230402 AAB
TAFHRO
TAF AMD
KHRO 230402Z 2304/2324 33012G22KT P6SM -RA BKN006 OVC012
     FM230600 33012G22KT 6SM BR OVC012
     FM230900 32008G16KT 4SM BR OVC009
     FM231600 31008KT P6SM SCT009 BKN250=

USA.gov is the U.S. government's official web portal to all federal, state and local government web resources and services.